Time,TemperatureF,DewpointF,PressureIn,WindDirection,WindDirectionDegrees,WindSpeedMPH,WindSpeedGustMPH,Humidity,HourlyPrecipIn,Conditions,Clouds,dailyrainin,SoftwareType,DateUTC
2013-04-07 00:11:00,42.3,20.3,30.06,SE,135,3.7,-999.0,41,-99.99,,,0.00,Acu-Link.com,2013-04-07 04:11:00,
2013-04-07 00:53:00,43.2,20.5,30.04,SE,135,5.3,-999.0,40,-99.99,,,0.00,Acu-Link.com,2013-04-07 04:53:00,
2013-04-07 01:08:00,43.3,20.6,30.03,South,180,3.2,-999.0,40,-99.99,,,0.00,Acu-Link.com,2013-04-07 05:08:00,
2013-04-07 01:26:00,43.5,20.2,30.03,South,180,7.3,-999.0,39,-99.99,,,0.00,Acu-Link.com,2013-04-07 05:26:00,
2013-04-07 01:50:00,43.7,20.4,30.02,ESE,112,4.7,-999.0,39,-99.99,,,0.00,Acu-Link.com,2013-04-07 05:50:00,
2013-04-07 02:08:00,43.7,20.4,30.02,ESE,112,4.2,-999.0,39,-99.99,,,0.00,Acu-Link.com,2013-04-07 06:08:00,
2013-04-07 02:42:00,43.7,20.4,30.01,SSE,157,2.7,-999.0,39,-99.99,,,0.00,Acu-Link.com,2013-04-07 06:42:00,
2013-04-07 03:21:00,43.7,21.0,30.01,ESE,112,4.2,-999.0,40,-99.99,,,0.00,Acu-Link.com,2013-04-07 07:21:00,
2013-04-07 03:37:00,43.5,21.4,30.01,ESE,112,6.8,-999.0,41,-99.99,,,0.00,Acu-Link.com,2013-04-07 07:37:00,
2013-04-07 03:55:00,43.3,22.3,30.01,ESE,112,3.2,-999.0,43,-99.99,,,0.00,Acu-Link.com,2013-04-07 07:55:00,
2013-04-07 04:45:00,43.7,22.7,30.00,South,180,8.3,-999.0,43,-99.99,,,0.00,Acu-Link.com,2013-04-07 08:45:00,
2013-04-07 05:01:00,43.3,22.9,30.00,ENE,67,9.4,-999.0,44,-99.99,,,0.00,Acu-Link.com,2013-04-07 09:01:00,
2013-04-07 05:56:00,43.5,24.1,29.98,South,180,6.3,-999.0,46,-99.99,,,0.00,Acu-Link.com,2013-04-07 09:56:00,
2013-04-07 06:15:00,43.9,24.0,29.98,South,180,6.8,-999.0,45,-99.99,,,0.00,Acu-Link.com,2013-04-07 10:15:00,
2013-04-07 06:31:00,43.3,24.9,29.98,SSW,202,5.3,-999.0,48,-99.99,,,0.00,Acu-Link.com,2013-04-07 10:31:00,
2013-04-07 06:46:00,43.5,24.1,29.98,SE,135,4.7,-999.0,46,-99.99,,,0.00,Acu-Link.com,2013-04-07 10:46:00,
2013-04-07 07:25:00,44.8,25.8,29.99,SE,135,4.2,-999.0,47,-99.99,,,0.00,Acu-Link.com,2013-04-07 11:25:00,
2013-04-07 07:41:00,45.5,26.5,29.99,South,180,6.3,-999.0,47,-99.99,,,0.00,Acu-Link.com,2013-04-07 11:41:00,
2013-04-07 08:42:00,47.7,28.5,29.98,SSE,157,7.3,-999.0,47,-99.99,,,0.00,Acu-Link.com,2013-04-07 12:42:00,
2013-04-07 10:26:00,53.2,31.9,29.96,SE,135,3.7,-999.0,44,-99.99,,,0.00,Acu-Link.com,2013-04-07 14:26:00,
2013-04-07 10:46:00,53.2,31.9,29.95,West,270,4.2,-999.0,44,-99.99,,,0.00,Acu-Link.com,2013-04-07 14:46:00,
2013-04-07 11:09:00,61.2,37.3,29.95,West,270,12.5,-999.0,41,-99.99,,,0.00,Acu-Link.com,2013-04-07 15:09:00,
2013-04-07 11:57:00,62.4,37.8,29.93,West,270,8.3,-999.0,40,-99.99,,,0.00,Acu-Link.com,2013-04-07 15:57:00,
2013-04-07 13:33:00,66.0,40.3,29.91,SW,225,16.6,-999.0,39,-99.99,,,0.00,Acu-Link.com,2013-04-07 17:33:00,
2013-04-07 13:53:00,66.0,40.3,29.91,SSE,157,8.9,-999.0,39,-99.99,,,0.00,Acu-Link.com,2013-04-07 17:53:00,
2013-04-07 14:47:00,68.2,40.9,29.91,South,180,11.4,-999.0,37,-99.99,,,0.00,Acu-Link.com,2013-04-07 18:47:00,
2013-04-07 15:25:00,66.6,40.9,29.89,WSW,247,6.8,-999.0,39,-99.99,,,0.00,Acu-Link.com,2013-04-07 19:25:00,
2013-04-07 16:07:00,66.0,41.6,29.89,SW,225,8.9,-999.0,41,-99.99,,,0.00,Acu-Link.com,2013-04-07 20:07:00,
2013-04-07 16:52:00,68.0,42.1,29.89,SSE,157,14.0,-999.0,39,-99.99,,,0.00,Acu-Link.com,2013-04-07 20:52:00,
2013-04-07 17:57:00,66.9,43.1,29.90,South,180,6.3,-999.0,42,-99.99,,,0.00,Acu-Link.com,2013-04-07 21:57:00,
2013-04-07 18:33:00,66.9,43.1,29.92,WSW,247,5.3,-999.0,42,-99.99,,,0.00,Acu-Link.com,2013-04-07 22:33:00,
2013-04-07 18:54:00,64.9,42.5,29.92,WSW,247,6.8,-999.0,44,-99.99,,,0.00,Acu-Link.com,2013-04-07 22:54:00,
2013-04-07 19:15:00,64.9,42.5,29.92,South,180,7.3,-999.0,44,-99.99,,,0.00,Acu-Link.com,2013-04-07 23:15:00,
2013-04-07 19:42:00,61.5,42.7,29.91,WSW,247,8.3,-999.0,50,-99.99,,,0.00,Acu-Link.com,2013-04-07 23:42:00,
2013-04-07 19:59:00,60.6,43.4,29.91,WSW,247,5.8,-999.0,53,-99.99,,,0.00,Acu-Link.com,2013-04-07 23:59:00,
2013-04-07 20:53:00,57.4,46.1,29.98,West,270,5.3,-999.0,66,-99.99,,,0.00,Acu-Link.com,2013-04-08 00:53:00,
2013-04-07 21:18:00,57.4,46.1,29.98,ESE,112,2.2,-999.0,66,-99.99,,,0.00,Acu-Link.com,2013-04-08 01:18:00,
2013-04-07 23:30:00,52.2,48.1,29.97,SSW,202,3.7,-999.0,86,-99.99,,,0.00,Acu-Link.com,2013-04-08 03:30:00,
2013-04-07 23:50:00,53.1,48.1,29.96,SSW,202,2.7,-999.0,83,-99.99,,,0.00,Acu-Link.com,2013-04-08 03:50:00,